Location: Laguna de la Cañada del Gallo
(40.3974°N, 5.2096°W)
Time: 12:01:45
(UTC+00:00)

IRS-P2 Rocket - Pass Details

Date: 18 April 2024
Orbit: 794 x 875 km, 98.9° (Epoch: 21 May)

Event Time Altitude Azimuth Distance (km) Brightness Sun altitude
Exits shadow 21:24:02 65° 141° (SE) 878 4.4 -24.3°
Maximum altitude 21:24:47 80° 75° (ENE) 820 4.5 -24.4°
Drops below altitude 10° 21:30:05 10° 349° (NNW) 2,407 7.8 -25.1°
Sets 21:32:27 0° 348° (NNW) 3,353 8.7 -25.5°
